CAPE
2421 2612 2986 3044 2841 2923 2631 2373 2446 2307 2130 1908 1767 1581 1422 1418 1426 1322 1246 975 991 991 883 549 873 878 699 557 221 356 101 115 135 89 174 78 135 232 393 232 187 140 249
2210 2030 2113 1856 1789 1961 1924 1777 1882 1965 1846 1612 1428 1112 988 954 1156 1175 955 788 764 927 805 630 732 820 702 491 465 191 142 142 89 115 171 198 210 487 556 325 157 63 51
1982 2168 2018 1960 1491 1351 1633 1751 1751 1745 1599 962 877 768 537 647 744 1146 992 803 701 671 553 398 656 689 497 456 623 270 232 290 100 97 63 239 213 155 352 102 172 114 124
1607 1519 1689 1657 1361 1399 1536 1517 1258 1029 872 732 679 434 601 635 831 834 605 620 692 342 525 381 472 647 555 637 515 575 435 206 183 69 127 308 328 88 114 61 32 64 148
1373 1308 1369 1230 1176 1278 1147 1025 917 747 619 470 730 513 851 389 570 734 1054 933 580 271 471 516 328 371 566 724 966 778 516 298 77 68 21 42 85 64 60 16 32 53 107
1512 1505 1214 1124 934 1007 880 386 883 872 807 356 541 620 636 218 107 29 399 797 482 471 246 423 185 120 165 228 252 601 451 189 62 1 0 87 50 54 6 0 24 47 64
689 561 533 528 496 321 372 368 897 1003 748 548 488 649 502 0 0 0 184 491 833 415 583 364 481 295 235 113 237 330 354 137 21 0 35 19 2 20 39 84 0 1 0
310 166 353 313 310 339 326 514 979 933 1060 997 895 677 80 0 0 7 125 388 650 543 575 405 497 447 359 245 423 294 83 244 6 2 1 1 2 5 6 16 0 0 1
327 201 264 273 251 219 404 673 983 793 728 842 863 884 80 0 2 37 51 30 94 175 75 147 172 57 46 112 482 61 49 22 15 0 3 0 0 4 2 1 5 0 0
288 182 216 147 179 397 404 826 886 816 931 810 673 586 1 0 0 1 3 4 10 10 26 30 31 66 2 67 27 15 49 13 2 2 2 2 9 23 17 93 3 3 0
108 168 126 133 178 340 580 821 723 913 751 719 748 469 112 7 10 7 1 19 15 17 7 26 10 2 6 20 3 3 4 2 0 5 0 11 21 15 21 28 18 15 1
232 47 340 478 227 493 736 986 772 1022 842 639 390 200 35 15 17 4 1 0 6 13 10 10 5 0 0 0 0 2 0 0 0 0 0 1 13 1 13 8 12 8 20
239 307 245 124 218 731 867 922 532 922 792 739 399 146 8 4 1 0 0 1 0 2 7 4 3 0 0 0 0 0 0 0 0 0 0 16 0 7 0 1 8 7 6
491 370 299 522 615 633 857 819 1050 1083 1159 907 511 310 14 0 0 0 0 11 0 2 11 2 1 1 0 0 0 0 0 0 0 5 0 5 6 2 0 0 0 10 23
522 409 331 549 418 192 256 281 302 250 573 729 668 173 1 0 5 0 2 2 0 0 0 1 3 1 0 0 0 0 0 0 5 0 0 0 1 7 1 0 11 14 9
366 553 407 430 951 439 110 138 24 61 58 69 110 229 7 0 0 0 0 0 0 0 0 5 5 0 0 0 0 0 2 0 0 5 7 16 4 7 12 11 16 0 0
414 749 244 432 488 459 349 56 0 25 48 1 4 20 28 0 0 0 0 0 0 12 70 9 1 0 6 16 0 0 0 2 4 8 13 11 10 12 12 0 0 0 0
345 218 260 590 588 315 440 200 132 85 2 0 0 0 0 0 0 0 0 0 1 11 39 14 10 20 32 53 33 35 13 11 24 9 17 17 34 37 25 19 6 0 0
198 147 98 699 630 303 547 461 363 264 2 0 0 0 0 0 0 0 0 4 15 24 10 41 43 43 47 57 32 51 67 61 40 42 45 45 42 34 20 2 0 0 0
62 135 175 621 517 528 412 561 516 320 9 11 2 0 0 0 0 0 0 12 10 65 42 28 61 54 16 37 36 45 40 32 40 47 42 27 24 29 19 12 1 0 0
186 92 230 233 454 681 622 605 758 621 299 413 36 0 0 4 0 0 0 7 28 55 58 95 76 69 60 69 104 54 52 38 18 47 28 48 24 3 0 0 3 0 0
157 320 270 270 134 323 574 519 886 684 419 291 184 20 75 81 12 9 44 37 65 121 261 134 137 62 104 70 58 65 69 50 19 23 36 81 101 53 17 9 0 0 0
75 170 171 141 454 271 206 146 60 656 536 144 171 153 180 171 223 164 261 179 150 152 110 148 251 192 164 139 117 118 107 141 135 137 228 198 156 274 137 151 170 272 202
146 231 343 241 249 223 242 337 224 269 402 152 172 113 248 354 233 169 186 181 177 144 223 243 245 179 185 101 75 81 91 78 104 186 322 377 399 397 400 420 375 352 323
101 186 186 203 148 83 235 244 289 297 278 207 171 38 35 98 296 319 363 351 355 377 234 275 332 286 200 166 101 97 130 121 94 77 112 180 174 264 305 301 341 338 227
0 98 157 127 91 107 171 274 282 249 223 267 243 155 75 50 95 164 238 302 298 252 356 457 353 315 151 163 284 227 126 240 252 160 170 177 128 115 127 115 136 157 139
CIN
-19 -19 -6 -6 -15 -8 -5 -13 -11 -10 -8 -6 -5 -7 -8 -10 -11 -17 -11 -21 -13 -24 -23 -29 -6 -20 -31 -33 -35 -33 -58 -23 -12 -26 -31 -27 -12 -22 -14 -27 -59 -43 -29
-46 -22 -18 -57 -62 -40 -26 -39 -24 -10 -7 -7 -4 -4 -4 -5 -7 -6 -10 -7 -10 -18 -26 -26 -13 -24 -17 -34 -57 -60 -54 -30 -41 -19 -59 -5 -13 -9 -7 -21 -38 -27 -47
-8 -2 -9 -5 -21 -19 -2 -10 -6 -6 -8 -10 -4 -4 -12 -12 -27 -13 -7 -8 -11 -19 -28 -30 -15 -24 -13 -22 -29 -49 -47 -34 -42 -30 -9 -1 -2 -13 -2 -21 -15 -29 -26
-19 -17 -7 -6 -32 -13 -6 -6 -8 -6 -6 -8 -5 -7 -10 -35 -16 -11 -13 -18 -11 -24 -26 -35 -26 -27 -34 -29 -27 -27 -42 -40 -22 -19 -6 0 -3 -4 -13 -27 -6 -11 -4
-26 -15 -13 -33 -25 -4 -4 -5 -7 -7 -7 -5 -15 -52 -51 -20 -16 -39 -3 -6 -22 -41 -17 -27 -22 -13 -16 -16 -23 -21 -25 -20 -24 -18 -3 -9 -7 -6 -10 -6 -10 -12 -18
-4 -2 -8 -4 -7 -4 -6 -30 -7 -7 -24 -65 -57 -46 -37 -21 -28 -52 -35 -9 -10 -10 -31 -21 -21 -26 -36 -31 -47 -33 -37 -55 -37 0 0 -16 -12 -10 -4 -1 -41 -19 -1
-35 -46 -40 -40 -68 -86 -35 -19 -4 -29 -58 -49 -49 -45 -26 0 0 0 -32 -13 -6 -15 -7 -35 -18 -32 -28 -39 -40 -28 -23 -23 -46 0 -55 -47 0 -30 -12 -23 0 0 0
-60 -79 -77 -88 -69 -50 -35 -13 -25 -27 -25 -14 -20 -23 -80 0 0 -123 -42 -8 -1 -11 -4 -4 -14 -15 -19 -47 -15 -24 -26 -10 -22 -1 0 0 -19 -26 -2 -6 0 0 -2
-58 -82 -52 -41 -59 -75 -28 -23 -22 -29 -19 -12 -8 -2 -61 0 -29 -65 -45 -62 -22 -3 -19 -19 -24 -37 -51 -34 -2 -57 -75 -56 -67 0 -37 0 0 -10 -2 0 -4 -1 0
-23 -40 -31 -81 -56 -32 -44 -29 -13 -18 -7 -11 -9 -6 -16 0 0 -8 0 -1 -21 -23 -15 -16 -29 -21 -1 -32 -41 -50 -85 -67 0 -62 -68 -22 -3 -4 -1 -28 -1 -1 0
-48 -50 -81 -96 -106 -50 -39 -20 -19 -10 -13 -8 -1 -4 -23 -52 -38 -33 -1 -1 -2 -3 -5 -2 -15 -15 -1 -13 -5 -1 -34 0 0 -32 0 -41 -12 -6 -1 0 0 0 -17
-6 -81 -18 -14 -54 -23 -36 -13 -14 -10 -12 -10 -14 -6 -40 -56 -43 -35 -4 0 0 -1 -1 -1 -2 0 0 0 0 0 0 0 0 0 0 -23 -18 -3 -4 -3 -4 -4 -1
-28 -41 -36 -87 -51 -14 -8 -12 -25 -16 -16 -10 -11 -11 -14 -65 -58 0 0 -14 -1 -1 -10 -16 -18 -4 0 0 0 0 0 0 0 0 -1 -10 -5 -7 -1 0 0 0 0
-24 -57 -39 -23 -12 -27 -3 -21 -5 -9 -7 -7 -7 -2 -19 0 0 0 0 0 0 -2 -5 -6 0 -1 0 0 0 0 0 0 0 0 -1 -2 -2 0 -1 0 0 -20 -16
-31 -29 -39 -13 -58 -23 -28 -26 -41 -28 -20 -25 -10 -13 0 0 0 0 -3 0 0 0 0 -2 -3 0 0 0 0 0 0 0 0 0 -1 -1 -1 -4 -1 0 -11 -18 -8
-37 -16 -7 -26 -11 -39 -54 -23 -45 -31 -33 -34 -28 -10 -3 0 0 0 0 0 0 -1 0 -2 -6 0 0 0 0 0 -1 0 0 0 0 -1 -2 -3 -14 -8 -5 0 -1
-34 -27 -4 -22 -13 -22 -37 -59 -1 -38 -18 -12 -4 -6 -25 0 0 0 0 0 0 -8 -1 -6 -3 0 -3 -4 0 0 0 -8 -6 -3 -1 -27 -25 -26 -19 -1 0 0 0
-29 -6 -36 -19 -7 -29 -18 -35 -33 -19 -20 0 0 0 0 0 0 0 0 0 -2 -2 -14 -17 0 -1 -34 -22 -10 -7 -10 -24 -8 -21 -21 -31 -32 -27 -24 -12 -4 0 0
-63 -28 -50 -14 -18 -60 -32 -17 -3 -5 -29 0 0 0 0 0 0 0 0 0 -4 -8 -15 -14 -18 -23 -22 -58 -26 -46 -12 -22 -26 -21 -26 -18 -40 -27 -9 -1 0 0 0
-51 -17 -11 -38 -59 -41 -81 -37 -23 -31 -122 -61 0 0 0 0 0 0 0 -19 -17 -9 -14 -10 -21 -24 -3 -39 -14 -14 -17 -46 -33 -41 -39 -36 -27 -14 -17 -10 -5 0 0
-1 -16 -12 -9 -24 -32 -44 -49 -29 -10 -43 -26 -67 0 0 0 0 0 0 -41 -24 -11 -13 -10 -7 -13 -24 -35 -17 -43 -34 -47 -2 -37 -28 -24 -26 -19 0 0 -8 -1 0
-41 -6 -12 -9 -6 -25 -49 -60 -44 -29 -37 -59 -85 -58 -35 -26 -79 -27 -70 -57 -16 -14 -13 -41 -18 -16 -7 -13 -7 -2 -19 -39 -48 -4 -22 -14 -18 -29 -25 -31 -7 0 -29
-87 -21 -6 -13 -31 -55 -38 -81 -42 -29 -37 -76 -85 -39 -21 -5 -7 -9 -33 -29 -13 -12 -24 -19 -16 -6 -12 -24 -24 -15 -20 -11 -18 -8 -19 -2 -2 -10 -18 -24 -14 -3 -16
-60 -65 -114 -17 -65 -108 -33 -29 -22 -65 -16 -26 -31 -58 -27 -4 -16 -14 -36 -44 -24 -33 -18 -16 -15 -23 -21 -47 -53 -38 -22 -29 -13 -1 0 -15 -18 -12 -7 -5 -4 -5 -8
-39 -31 -17 -6 -5 -57 -28 -7 -15 -22 -16 -18 -6 -84 -70 -42 -2 -2 0 -8 -11 -19 -12 -3 -9 -2 -12 -12 -19 -9 -7 -21 -18 -9 -4 -2 -2 -62 -6 -22 -19 -15 -12
0 -39 -26 -18 -10 -32 -30 -15 -6 -15 -26 -13 -11 -9 -10 -42 -24 -16 -17 -18 -10 -10 -8 -7 -9 -10 -9 -11 -4 0 -12 -8 -8 -16 -14 -17 -27 -39 -21 -20 -12 -12 -27
Wind_Speed
33 31 30 32 35 33 31 28 33 32 31 30 28 28 26 29 27 25 16 26 25 27 23 23 11 10 6 5 7 4 6 8 11 nan 14 nan 6 10 12 13 12 15 17
37 33 32 31 34 34 30 28 29 28 28 28 28 26 26 25 24 21 21 21 24 22 22 17 12 9 5 1 6 1 4 7 nan 13 17 14 12 16 16 14 12 nan nan
33 29 29 34 32 27 25 24 25 25 25 26 25 22 21 22 21 20 22 18 20 20 17 15 12 9 6 6 4 3 4 8 10 nan nan 12 10 11 12 15 13 14 17
27 29 31 27 25 24 23 23 25 26 27 27 24 21 23 24 21 19 19 17 20 23 14 11 8 8 7 4 5 5 6 11 12 nan 9 13 13 nan 10 nan nan nan 13
31 29 24 21 20 21 21 24 26 26 24 24 26 27 26 25 19 19 19 23 23 20 8 13 15 8 13 12 8 8 8 8 nan nan nan nan nan nan nan nan nan nan 13
27 22 19 18 20 20 21 24 20 18 19 20 19 20 21 20 17 nan 18 21 19 12 5 8 13 16 19 20 19 6 8 9 nan nan nan nan nan nan nan nan nan nan nan
20 17 17 18 20 20 21 16 14 17 15 17 16 18 19 nan nan nan 17 18 15 7 6 4 9 10 14 18 18 17 16 11 nan nan nan nan nan nan nan nan nan nan nan
14 15 22 22 22 19 14 9 16 15 16 16 14 18 nan nan nan nan 18 12 9 11 12 12 12 13 14 12 13 14 nan 15 nan nan nan nan nan nan nan nan nan nan nan
21 21 19 19 19 14 12 15 17 17 17 15 12 17 nan nan nan nan nan nan nan 11 nan 15 14 nan nan 16 14 nan nan nan nan nan nan nan nan nan nan nan nan nan nan
16 14 17 17 16 16 17 17 17 15 16 12 13 17 nan nan nan nan nan nan nan nan nan nan nan nan nan nan nan nan nan nan nan nan nan nan nan nan nan nan nan nan nan
10 13 17 14 15 18 19 16 12 9 15 12 16 15 13 nan nan nan nan nan nan nan nan nan nan nan nan nan nan nan nan nan nan nan nan nan nan nan nan nan nan nan nan
16 nan 17 15 18 18 16 9 8 12 12 9 13 9 nan nan nan nan nan nan nan nan nan nan nan nan nan nan nan nan nan nan nan nan nan nan nan nan nan nan nan nan nan
17 14 14 14 13 11 9 7 8 6 6 4 6 6 nan nan nan nan nan nan nan nan nan nan nan nan nan nan nan nan nan nan nan nan nan nan nan nan nan nan nan nan nan
13 12 11 9 8 9 7 4 5 6 7 5 4 3 nan nan nan nan nan nan nan nan nan nan nan nan nan nan nan nan nan nan nan nan nan nan nan nan nan nan nan nan nan
10 10 8 8 11 13 13 15 13 14 10 4 3 3 nan nan nan nan nan nan nan nan nan nan nan nan nan nan nan nan nan nan nan nan nan nan nan nan nan nan nan nan nan
6 7 4 6 7 8 7 11 nan nan nan nan 5 2 nan nan nan nan nan nan nan nan nan nan nan nan nan nan nan nan nan nan nan nan nan nan nan nan nan nan nan nan nan
3 1 6 7 5 5 5 nan nan nan nan nan nan nan nan nan nan nan nan nan nan nan nan nan nan nan nan nan nan nan nan nan nan nan nan nan nan nan nan nan nan nan nan
5 9 5 4 2 5 7 8 4 nan nan nan nan nan nan nan nan nan nan nan nan nan nan nan nan nan nan nan nan nan nan nan nan nan nan nan nan nan nan nan nan nan nan
8 5 nan 1 2 2 8 8 8 7 nan nan nan nan nan nan nan nan nan nan nan nan nan nan nan nan nan nan nan nan nan nan nan nan nan nan nan nan nan nan nan nan nan
nan 8 10 3 1 1 7 6 9 11 nan nan nan nan nan nan nan nan nan nan nan nan nan nan nan nan nan nan nan nan nan nan nan nan nan nan nan nan nan nan nan nan nan
12 nan 6 11 4 4 5 6 4 4 4 6 nan nan nan nan nan nan nan nan nan nan nan nan nan nan nan nan 7 nan nan nan nan nan nan nan nan nan nan nan nan nan nan
26 13 13 16 7 3 6 6 7 7 7 5 4 nan nan nan nan nan nan nan nan 8 5 6 7 nan 7 nan nan nan nan nan nan nan nan nan 7 nan nan nan nan nan nan
nan 24 18 20 11 20 25 22 nan 4 5 7 5 4 5 10 9 11 4 5 9 8 13 14 11 13 13 16 16 15 13 11 9 1 6 6 6 8 9 10 8 7 9
33 33 31 30 28 21 22 19 19 24 19 16 15 12 11 13 14 14 14 14 15 15 15 12 13 19 17 18 nan nan nan nan 14 13 16 11 10 10 12 13 13 15 18
34 32 34 34 34 nan 30 27 27 28 27 26 26 nan nan nan 26 26 23 22 21 23 25 23 22 28 32 34 33 nan 28 27 nan nan 25 27 28 26 25 26 27 25 24
nan nan 34 35 nan 38 36 34 35 33 31 30 31 30 nan nan nan 27 27 30 29 30 33 31 34 39 39 36 35 31 31 33 33 30 31 33 34 34 33 32 32 30 29
Wind_Direction
265 265 268 271 275 282 285 285 288 292 290 294 294 295 297 296 292 296 288 306 302 300 299 312 300 306 275 292 301 257 190 162 178 nan 194 nan 223 236 207 213 224 210 192
257 258 263 270 272 275 279 282 283 291 297 299 294 291 295 295 293 295 301 302 300 306 311 319 309 281 258 253 276 332 177 182 nan 267 185 192 205 203 197 216 214 nan nan
257 263 270 270 273 273 275 281 284 289 291 292 292 293 291 294 300 298 301 294 304 308 302 314 289 263 244 208 247 234 188 203 227 nan nan 178 177 177 197 203 208 214 203
260 265 269 271 270 275 279 282 289 290 287 287 290 290 284 278 282 296 295 301 310 307 266 300 256 254 245 216 224 245 227 224 235 nan 194 180 175 nan 192 nan nan nan 208
266 265 267 265 269 275 281 292 295 292 292 294 282 273 266 257 254 263 279 295 297 310 309 279 220 223 230 228 211 219 240 234 nan nan nan nan nan nan nan nan nan nan 202
274 279 277 282 276 280 289 296 293 293 277 269 272 269 262 262 268 nan 281 301 309 308 299 246 236 254 233 230 227 240 237 233 nan nan nan nan nan nan nan nan nan nan nan
265 268 277 273 267 273 283 284 284 273 285 282 272 272 270 nan nan nan 271 287 285 276 270 223 212 217 244 230 224 229 231 230 nan nan nan nan nan nan nan nan nan nan nan
281 280 265 268 273 285 288 274 274 277 284 283 272 276 nan nan nan nan 284 275 254 224 223 205 234 217 225 226 220 221 nan 202 nan nan nan nan nan nan nan nan nan nan nan
260 266 272 277 289 294 292 287 279 280 292 282 269 278 nan nan nan nan nan nan nan 221 nan 204 230 nan nan 204 210 nan nan nan nan nan nan nan nan nan nan nan nan nan nan
272 281 284 298 310 294 292 285 279 282 277 270 267 265 nan nan nan nan nan nan nan nan nan nan nan nan nan nan nan nan nan nan nan nan nan nan nan nan nan nan nan nan nan
278 281 299 299 287 288 289 281 287 280 267 258 260 267 274 nan nan nan nan nan nan nan nan nan nan nan nan nan nan nan nan nan nan nan nan nan nan nan nan nan nan nan nan
273 nan 281 290 295 295 289 289 272 259 243 247 262 268 nan nan nan nan nan nan nan nan nan nan nan nan nan nan nan nan nan nan nan nan nan nan nan nan nan nan nan nan nan
274 282 282 283 286 292 299 293 271 234 230 252 262 305 nan nan nan nan nan nan nan nan nan nan nan nan nan nan nan nan nan nan nan nan nan nan nan nan nan nan nan nan nan
290 283 292 287 298 290 274 242 183 183 209 221 243 337 nan nan nan nan nan nan nan nan nan nan nan nan nan nan nan nan nan nan nan nan nan nan nan nan nan nan nan nan nan
275 290 301 297 270 246 231 185 197 184 169 195 247 316 nan nan nan nan nan nan nan nan nan nan nan nan nan nan nan nan nan nan nan nan nan nan nan nan nan nan nan nan nan
291 311 327 302 293 270 245 204 nan nan nan nan 178 116 nan nan nan nan nan nan nan nan nan nan nan nan nan nan nan nan nan nan nan nan nan nan nan nan nan nan nan nan nan
276 195 266 274 275 248 236 nan nan nan nan nan nan nan nan nan nan nan nan nan nan nan nan nan nan nan nan nan nan nan nan nan nan nan nan nan nan nan nan nan nan nan nan
195 214 265 302 235 225 206 205 203 nan nan nan nan nan nan nan nan nan nan nan nan nan nan nan nan nan nan nan nan nan nan nan nan nan nan nan nan nan nan nan nan nan nan
146 250 nan 338 228 185 183 190 203 232 nan nan nan nan nan nan nan nan nan nan nan nan nan nan nan nan nan nan nan nan nan nan nan nan nan nan nan nan nan nan nan nan nan
nan 245 172 76 39 173 164 189 231 239 nan nan nan nan nan nan nan nan nan nan nan nan nan nan nan nan nan nan nan nan nan nan nan nan nan nan nan nan nan nan nan nan nan
182 nan 140 119 87 84 92 136 152 188 216 218 nan nan nan nan nan nan nan nan nan nan nan nan nan nan nan nan 176 nan nan nan nan nan nan nan nan nan nan nan nan nan nan
171 180 172 153 171 149 116 105 117 148 181 198 195 nan nan nan nan nan nan nan nan 130 181 178 170 nan 183 nan nan nan nan nan nan nan nan nan 261 nan nan nan nan nan nan
nan 175 183 168 202 216 193 197 nan 190 173 187 187 185 145 150 166 171 127 133 191 186 207 207 201 217 219 219 220 219 214 212 202 299 295 276 264 256 265 269 276 289 299
205 202 206 205 205 226 225 209 217 211 211 209 207 214 218 209 203 220 210 212 221 221 218 224 228 227 221 227 nan nan nan nan 218 221 217 230 256 253 251 251 257 263 270
209 204 203 203 211 nan 219 215 217 217 203 208 213 nan nan nan 213 214 214 228 230 239 239 233 228 233 229 224 222 nan 210 212 nan nan 234 235 233 234 240 244 247 256 265
nan nan 218 217 nan 218 225 226 229 232 231 222 226 230 nan nan nan 235 237 241 244 244 246 247 244 241 242 240 236 233 231 230 233 235 245 244 245 248 247 245 241 253 254